                   Node   239.25529     -0.75052261     +0.38613878

e   1.0            Incl.  100.99691     +0.47119863     +0.88168401

From 127 observations 2006 June 14-July 17.



NAKANO

         **** Don't distribute anyone except personal use only ****

                (C) Copyright 2006 OAA/ComputingSection

write mail from CFAD0::NAKANO on 2006-07-20 23:22:32(JST).

 





    C/2006 L2 (McNaught)

T 2006 Nov. 22.29635 TT                                 Nakano

q   1.8964452            (2000.0)            P               Q

                   Peri.   51.87622     -0.42282540     +0.30797495

                   Node   239.78051     -0.73817757     +0.42848040

e   1.0            Incl.   99.49176     +0.52565441     +0.84944451

From 47 observations 2006 June 14-15.



NAKANO

         **** Don't distribute anyone except personal use only ****

                (C) Copyright 2006 OAA/ComputingSection

write mail from CFAD0::NAKANO on 2006-06-20 02:59:54(JST).

 



戻ります。